| time (UTC) | temp F | wind direction | speed MPH | gust MPH | rain 1hr in | rain 24hr in | rain mn in | humidity % | barometer mb |
| 20260901161116 | 87 | 162 | 0.0 | 3.0 | 0.00 | 0.00 | 0.00 | 73 | 1016.1 |
| 20260901160613 | 87 | 222 | 0.0 | 4.0 | 0.00 | 0.00 | 0.00 | 77 | 1016.3 |
| 20260901160108 | 86 | 16 | 1.0 | 4.0 | 0.00 | 0.00 | 0.00 | 76 | 1015.8 |
| 20260901155606 | 86 | 175 | 2.0 | 4.0 | 0.00 | 0.00 | 0.00 | 75 | 1016.0 |
| 20260901155103 | 87 | 160 | 1.0 | 2.0 | 0.00 | 0.00 | 0.00 | 74 | 1016.0 |
| 20260901154602 | 88 | 221 | 1.0 | 4.0 | 0.00 | 0.00 | 0.00 | 72 | 1016.1 |
| 20260901154056 | 88 | 219 | 0.0 | 3.0 | 0.00 | 0.00 | 0.00 | 74 | 1016.2 |
| 20260901153552 | 87 | 218 | 0.0 | 3.0 | 0.00 | 0.00 | 0.00 | 74 | 1015.9 |
| 20260901153045 | 87 | 174 | 1.0 | 2.0 | 0.00 | 0.00 | 0.00 | 74 | 1015.9 |
| 20260901152541 | 86 | 89 | 0.0 | 2.0 | 0.00 | 0.00 | 0.00 | 76 | 1016.0 |
| 20260901152039 | 85 | 182 | 0.0 | 3.0 | 0.00 | 0.00 | 0.00 | 77 | 1016.1 |
| 20260901151536 | 85 | 104 | 0.0 | 1.0 | 0.00 | 0.00 | 0.00 | 79 | 1015.9 |
| 20260901151035 | 84 | 44 | 0.0 | 3.0 | 0.00 | 0.00 | 0.00 | 80 | 1015.9 |
| 20260901150533 | 83 | 333 | 0.0 | 2.0 | 0.00 | 0.00 | 0.00 | 81 | 1016.1 |
| 20260901150031 | 82 | 169 | 1.0 | 3.0 | 0.00 | 0.00 | 0.00 | 82 | 1016.0 |
| 20260901145524 | 80 | 117 | 1.0 | 4.0 | 0.00 | 0.00 | 0.00 | 83 | 1016.0 |
| 20260901145019 | 80 | 169 | 2.0 | 4.0 | 0.00 | 0.00 | 0.00 | 84 | 1016.0 |
| 20260901144515 | 78 | 136 | 1.0 | 3.0 | 0.00 | 0.00 | 0.00 | 86 | 1016.1 |
| 20260901144009 | 78 | 178 | 3.0 | 4.0 | 0.00 | 0.00 | 0.00 | 86 | 1016.2 |
| 20260901143505 | 78 | 234 | 2.0 | 3.0 | 0.00 | 0.00 | 0.00 | 86 | 1016.2 |
| 20260901143001 | 78 | 220 | 0.0 | 3.0 | 0.00 | 0.00 | 0.00 | 87 | 1016.3 |
| 20260901142455 | 78 | 186 | 0.0 | 2.0 | 0.00 | 0.00 | 0.00 | 87 | 1016.3 |
| 20260901141951 | 78 | 187 | 1.0 | 3.0 | 0.00 | 0.00 | 0.00 | 86 | 1016.4 |
| 20260901141450 | 78 | 154 | 0.0 | 2.0 | 0.00 | 0.00 | 0.00 | 86 | 1016.2 |
| 20260901140946 | 78 | 255 | 0.0 | 2.0 | 0.00 | 0.00 | 0.00 | 86 | 1016.2 |
| 20260901140443 | 78 | 124 | 0.0 | 2.0 | 0.00 | 0.00 | 0.00 | 87 | 1016.2 |
| 20260901135938 | 78 | 235 | 0.0 | 2.0 | 0.00 | 0.00 | 0.00 | 86 | 1016.3 |
| 20260901135433 | 77 | 158 | 0.0 | 2.0 | 0.00 | 0.00 | 0.00 | 87 | 1016.3 |
| 20260901134929 | 77 | 224 | 1.0 | 2.0 | 0.00 | 0.00 | 0.00 | 88 | 1016.1 |
| 20260901134424 | 77 | 118 | 0.0 | 3.0 | 0.00 | 0.00 | 0.00 | 88 | 1016.1 |
| 20260901133924 | 76 | 180 | 0.0 | 3.0 | 0.00 | 0.00 | 0.00 | 88 | 1016.1 |
| 20260901133423 | 76 | 194 | 0.0 | 3.0 | 0.00 | 0.00 | 0.00 | 88 | 1016.2 |
| 20260901132922 | 76 | 180 | 0.0 | 3.0 | 0.00 | 0.00 | 0.00 | 88 | 1016.3 |
| 20260901132417 | 76 | 191 | 0.0 | 3.0 | 0.00 | 0.00 | 0.00 | 88 | 1016.4 |
| 20260901131916 | 76 | 12 | 1.0 | 2.0 | 0.00 | 0.00 | 0.00 | 89 | 1016.2 |
| 20260901131416 | 76 | 187 | 0.0 | 3.0 | 0.00 | 0.00 | 0.00 | 89 | 1016.2 |
| 20260901130912 | 76 | 126 | 0.0 | 2.0 | 0.00 | 0.00 | 0.00 | 89 | 1016.1 |
| 20260901130406 | 75 | 236 | 2.0 | 2.0 | 0.00 | 0.00 | 0.00 | 90 | 1016.2 |
| 20260901125903 | 74 | 178 | 0.0 | 3.0 | 0.00 | 0.00 | 0.00 | 91 | 1015.8 |
| 20260901125403 | 74 | 191 | 1.0 | 3.0 | 0.00 | 0.00 | 0.00 | 92 | 1016.0 |
| 20260901124858 | 73 | 162 | 1.0 | 3.0 | 0.00 | 0.00 | 0.00 | 93 | 1016.1 |
| 20260901124353 | 73 | 173 | 0.0 | 3.0 | 0.00 | 0.00 | 0.00 | 93 | 1016.1 |
| 20260901123853 | 73 | 191 | 1.0 | 2.0 | 0.00 | 0.00 | 0.00 | 93 | 1015.9 |
| 20260901123348 | 72 | 192 | 1.0 | 3.0 | 0.00 | 0.00 | 0.00 | 94 | 1016.1 |
| 20260901122846 | 72 | 178 | 1.0 | 2.0 | 0.00 | 0.00 | 0.00 | 94 | 1016.1 |
| 20260901122341 | 72 | 194 | 1.0 | 3.0 | 0.00 | 0.00 | 0.00 | 94 | 1016.0 |
| 20260901121840 | 72 | 212 | 0.0 | 2.0 | 0.00 | 0.00 | 0.00 | 94 | 1015.8 |
| 20260901121336 | 72 | 165 | 1.0 | 2.0 | 0.00 | 0.00 | 0.00 | 94 | 1015.8 |
| 20260901120831 | 72 | 206 | 1.0 | 3.0 | 0.00 | 0.00 | 0.00 | 94 | 1015.7 |
| 20260901120325 | 72 | 156 | 0.0 | 3.0 | 0.00 | 0.00 | 0.00 | 95 | 1015.6 |
| 20260901115821 | 72 | 191 | 2.0 | 4.0 | 0.00 | 0.00 | 0.00 | 95 | 1015.7 |
| 20260901115316 | 71 | 210 | 0.0 | 3.0 | 0.00 | 0.00 | 0.00 | 95 | 1015.7 |
| 20260901114814 | 71 | 89 | 0.0 | 2.0 | 0.00 | 0.00 | 0.00 | 95 | 1015.6 |
| 20260901114308 | 71 | 72 | 0.0 | 2.0 | 0.00 | 0.00 | 0.00 | 96 | 1015.6 |
| 20260901113806 | 71 | 293 | 0.0 | 2.0 | 0.00 | 0.00 | 0.00 | 96 | 1015.5 |
| 20260901113255 | 71 | 154 | 0.0 | 2.0 | 0.00 | 0.00 | 0.00 | 96 | 1015.4 |
| 20260901112750 | 71 | 149 | 0.0 | 2.0 | 0.00 | 0.00 | 0.00 | 96 | 1015.4 |
| 20260901112250 | 71 | 160 | 0.0 | 2.0 | 0.00 | 0.00 | 0.00 | 96 | 1015.5 |
| 20260901111745 | 71 | 193 | 0.0 | 2.0 | 0.00 | 0.00 | 0.00 | 96 | 1015.5 |
| 20260901111244 | 71 | 188 | 0.0 | 2.0 | 0.00 | 0.00 | 0.00 | 95 | 1015.3 |
| 20260901110743 | 71 | 135 | 0.0 | 2.0 | 0.00 | 0.00 | 0.00 | 95 | 1015.3 |
| 20260901110238 | 71 | 233 | 0.0 | 1.0 | 0.00 | 0.00 | 0.00 | 95 | 1015.4 |
| 20260901105735 | 71 | 168 | 0.0 | 1.0 | 0.00 | 0.00 | 0.00 | 95 | 1015.3 |
| 20260901105234 | 71 | 230 | 0.0 | 2.0 | 0.00 | 0.00 | 0.00 | 95 | 1015.4 |
| 20260901104731 | 72 | 124 | 1.0 | 3.0 | 0.00 | 0.00 | 0.00 | 95 | 1015.5 |
| 20260901104226 | 71 | 143 | 2.0 | 2.0 | 0.00 | 0.00 | 0.00 | 95 | 1015.3 |
| 20260901103725 | 72 | 164 | 0.0 | 2.0 | 0.00 | 0.00 | 0.00 | 95 | 1015.2 |
| 20260901103221 | 72 | 201 | 1.0 | 3.0 | 0.00 | 0.00 | 0.00 | 95 | 1015.1 |
| 20260901102715 | 72 | 190 | 0.0 | 3.0 | 0.00 | 0.00 | 0.00 | 95 | 1015.2 |
| 20260901102215 | 72 | 129 | 0.0 | 2.0 | 0.00 | 0.00 | 0.00 | 95 | 1015.3 |
| 20260901101711 | 72 | 205 | 0.0 | 1.0 | 0.00 | 0.00 | 0.00 | 94 | 1015.3 |
| 20260901101210 | 72 | 200 | 0.0 | 2.0 | 0.00 | 0.00 | 0.00 | 94 | 1015.1 |
| 20260901100705 | 72 | 267 | 1.0 | 2.0 | 0.00 | 0.00 | 0.00 | 94 | 1015.3 |
| 20260901100200 | 72 | 236 | 0.0 | 3.0 | 0.00 | 0.00 | 0.00 | 94 | 1015.2 |
| 20260901095658 | 72 | 260 | 0.0 | 2.0 | 0.00 | 0.00 | 0.00 | 94 | 1015.3 |
| 20260901095156 | 72 | 242 | 0.0 | 3.0 | 0.00 | 0.00 | 0.00 | 94 | 1015.2 |
| 20260901094650 | 72 | 166 | 1.0 | 3.0 | 0.00 | 0.00 | 0.00 | 94 | 1015.2 |
| 20260901094144 | 72 | 180 | 0.0 | 1.0 | 0.00 | 0.00 | 0.00 | 95 | 1015.2 |
| 20260901093639 | 72 | 180 | 2.0 | 3.0 | 0.00 | 0.00 | 0.00 | 94 | 1015.1 |
| 20260901093138 | 72 | 164 | 1.0 | 2.0 | 0.00 | 0.00 | 0.00 | 94 | 1015.2 |
| 20260901092634 | 72 | 185 | 3.0 | 3.0 | 0.00 | 0.00 | 0.00 | 94 | 1015.2 |
| 20260901092131 | 72 | 186 | 2.0 | 3.0 | 0.00 | 0.00 | 0.00 | 94 | 1015.3 |
| 20260901091626 | 72 | 180 | 0.0 | 2.0 | 0.00 | 0.00 | 0.00 | 94 | 1015.4 |
| 20260901091121 | 72 | 238 | 1.0 | 1.0 | 0.00 | 0.00 | 0.00 | 94 | 1015.4 |
| 20260901090615 | 73 | 237 | 0.0 | 2.0 | 0.00 | 0.00 | 0.00 | 94 | 1015.3 |
| 20260901090111 | 73 | 147 | 0.0 | 2.0 | 0.00 | 0.00 | 0.00 | 94 | 1015.3 |
| 20260901085606 | 73 | 205 | 0.0 | 2.0 | 0.00 | 0.00 | 0.00 | 94 | 1015.1 |
| 20260901085102 | 73 | 212 | 2.0 | 4.0 | 0.00 | 0.00 | 0.00 | 94 | 1015.3 |
| 20260901084558 | 73 | 205 | 0.0 | 3.0 | 0.00 | 0.00 | 0.00 | 94 | 1015.2 |
| 20260901084054 | 73 | 217 | 0.0 | 2.0 | 0.00 | 0.00 | 0.00 | 94 | 1015.1 |
| 20260901083548 | 73 | 192 | 0.0 | 2.0 | 0.00 | 0.00 | 0.00 | 94 | 1014.9 |
| 20260901083046 | 73 | 217 | 0.0 | 3.0 | 0.00 | 0.00 | 0.00 | 93 | 1015.1 |
| 20260901082541 | 73 | 147 | 0.0 | 2.0 | 0.00 | 0.00 | 0.00 | 93 | 1015.0 |
| 20260901082037 | 73 | 186 | 2.0 | 2.0 | 0.00 | 0.00 | 0.00 | 93 | 1014.9 |
| 20260901081532 | 73 | 215 | 3.0 | 4.0 | 0.00 | 0.00 | 0.00 | 93 | 1015.0 |
| 20260901081026 | 73 | 190 | 0.0 | 3.0 | 0.00 | 0.00 | 0.00 | 93 | 1015.1 |
| 20260901080525 | 73 | 248 | 0.0 | 3.0 | 0.00 | 0.00 | 0.00 | 93 | 1015.1 |
| 20260901080020 | 73 | 204 | 0.0 | 2.0 | 0.00 | 0.00 | 0.00 | 93 | 1015.0 |
| 20260901075516 | 73 | 213 | 0.0 | 2.0 | 0.00 | 0.00 | 0.00 | 93 | 1015.0 |
| 20260901075015 | 73 | 235 | 0.0 | 3.0 | 0.00 | 0.00 | 0.00 | 93 | 1014.9 |
| 20260901074515 | 73 | 204 | 1.0 | 3.0 | 0.00 | 0.00 | 0.00 | 93 | 1014.7 |
| 20260901074010 | 74 | 184 | 2.0 | 3.0 | 0.00 | 0.00 | 0.00 | 93 | 1015.0 |
| 20260901073507 | 74 | 189 | 0.0 | 5.0 | 0.00 | 0.00 | 0.00 | 93 | 1014.9 |
| 20260901073007 | 74 | 212 | 0.0 | 2.0 | 0.00 | 0.00 | 0.00 | 93 | 1014.9 |
| 20260901072501 | 74 | 162 | 0.0 | 4.0 | 0.00 | 0.00 | 0.00 | 92 | 1014.8 |
| 20260901071951 | 74 | 173 | 2.0 | 3.0 | 0.00 | 0.00 | 0.00 | 92 | 1015.0 |
| 20260901071450 | 74 | 189 | 0.0 | 3.0 | 0.00 | 0.00 | 0.00 | 92 | 1015.0 |
| 20260901070949 | 74 | 187 | 2.0 | 3.0 | 0.00 | 0.00 | 0.00 | 92 | 1015.1 |
| 20260901070445 | 74 | 306 | 1.0 | 2.0 | 0.00 | 0.00 | 0.00 | 92 | 1015.0 |
| 20260901065944 | 74 | 197 | 2.0 | 4.0 | 0.00 | 0.00 | 0.00 | 91 | 1015.1 |
| 20260901065440 | 74 | 213 | 0.0 | 5.0 | 0.00 | 0.00 | 0.00 | 91 | 1015.0 |
| 20260901064934 | 75 | 189 | 1.0 | 2.0 | 0.00 | 0.00 | 0.00 | 91 | 1015.1 |
| 20260901064430 | 75 | 193 | 0.0 | 3.0 | 0.00 | 0.00 | 0.00 | 91 | 1015.1 |
| 20260901063928 | 75 | 191 | 0.0 | 6.0 | 0.00 | 0.00 | 0.00 | 91 | 1014.8 |
| 20260901063424 | 75 | 193 | 1.0 | 3.0 | 0.00 | 0.00 | 0.00 | 91 | 1014.8 |
| 20260901062920 | 75 | 134 | 2.0 | 4.0 | 0.00 | 0.00 | 0.00 | 91 | 1015.0 |
| 20260901062416 | 75 | 195 | 1.0 | 3.0 | 0.00 | 0.00 | 0.00 | 91 | 1014.9 |
| 20260901061911 | 75 | 167 | 1.0 | 3.0 | 0.00 | 0.00 | 0.00 | 91 | 1014.8 |
| 20260901061407 | 75 | 189 | 1.0 | 5.0 | 0.00 | 0.00 | 0.00 | 91 | 1015.0 |
| 20260901060902 | 74 | 197 | 1.0 | 5.0 | 0.00 | 0.00 | 0.00 | 92 | 1015.1 |
| 20260901060358 | 74 | 217 | 0.0 | 2.0 | 0.00 | 0.00 | 0.00 | 92 | 1015.3 |
| 20260901055857 | 74 | 211 | 0.0 | 3.0 | 0.00 | 0.00 | 0.00 | 92 | 1015.1 |
| 20260901055353 | 74 | 207 | 0.0 | 2.0 | 0.00 | 0.00 | 0.00 | 92 | 1015.0 |
| 20260901054849 | 74 | 137 | 0.0 | 3.0 | 0.00 | 0.00 | 0.00 | 92 | 1015.1 |
| 20260901054347 | 74 | 161 | 0.0 | 3.0 | 0.00 | 0.00 | 0.00 | 92 | 1015.2 |
| 20260901053842 | 74 | 179 | 3.0 | 3.0 | 0.00 | 0.00 | 0.00 | 91 | 1015.3 |
| 20260901053337 | 74 | 252 | 0.0 | 2.0 | 0.00 | 0.00 | 0.00 | 91 | 1015.4 |
| 20260901052833 | 74 | 152 | 0.0 | 2.0 | 0.00 | 0.00 | 0.00 | 91 | 1015.3 |
| 20260901052328 | 74 | 156 | 0.0 | 2.0 | 0.00 | 0.00 | 0.00 | 91 | 1015.5 |
| 20260901051826 | 74 | 183 | 0.0 | 2.0 | 0.00 | 0.00 | 0.00 | 91 | 1015.4 |
| 20260901051321 | 74 | 237 | 0.0 | 3.0 | 0.00 | 0.00 | 0.00 | 91 | 1015.4 |
| 20260901050816 | 75 | 194 | 0.0 | 2.0 | 0.00 | 0.00 | 0.00 | 91 | 1015.4 |
| 20260901050307 | 75 | 174 | 0.0 | 2.0 | 0.00 | 0.00 | 0.00 | 90 | 1015.5 |
| 20260901045802 | 75 | 199 | 0.0 | 2.0 | 0.00 | 0.00 | 0.00 | 90 | 1015.4 |
| 20260901045256 | 75 | 142 | 0.0 | 3.0 | 0.00 | 0.00 | 0.00 | 90 | 1015.4 |
| 20260901044752 | 75 | 190 | 2.0 | 4.0 | 0.00 | 0.00 | 0.00 | 90 | 1015.0 |
| 20260901044248 | 75 | 168 | 0.0 | 2.0 | 0.00 | 0.00 | 0.00 | 89 | 1015.1 |
| 20260901043743 | 75 | 258 | 0.0 | 5.0 | 0.00 | 0.00 | 0.00 | 89 | 1015.3 |
| 20260901043239 | 75 | 139 | 0.0 | 4.0 | 0.00 | 0.00 | 0.00 | 89 | 1015.3 |
| 20260901042738 | 75 | 190 | 0.0 | 5.0 | 0.00 | 0.00 | 0.00 | 89 | 1015.2 |
| 20260901042232 | 75 | 208 | 0.0 | 3.0 | 0.00 | 0.00 | 0.00 | 89 | 1015.2 |
| 20260901041729 | 75 | 156 | 2.0 | 3.0 | 0.00 | 0.00 | 0.00 | 89 | 1015.2 |
| 20260901041229 | 75 | 173 | 0.0 | 5.0 | 0.00 | 0.00 | 0.00 | 89 | 1015.2 |
| 20260901040724 | 75 | 223 | 3.0 | 5.0 | 0.00 | 0.00 | 0.00 | 89 | 1015.4 |
| 20260901040222 | 75 | 212 | 3.0 | 4.0 | 0.00 | 0.00 | 0.00 | 88 | 1015.2 |
| 20260901035720 | 75 | 212 | 2.0 | 5.0 | 0.00 | 0.08 | 0.08 | 89 | 1015.3 |
| 20260901035215 | 75 | 157 | 0.0 | 3.0 | 0.00 | 0.08 | 0.08 | 89 | 1015.2 |
| 20260901034714 | 75 | 307 | 1.0 | 3.0 | 0.00 | 0.08 | 0.08 | 88 | 1015.2 |
| 20260901034209 | 75 | 184 | 0.0 | 4.0 | 0.00 | 0.08 | 0.08 | 88 | 1015.1 |
| 20260901033708 | 75 | 273 | 0.0 | 7.0 | 0.00 | 0.08 | 0.08 | 88 | 1015.2 |
| 20260901033202 | 75 | 220 | 3.0 | 9.0 | 0.00 | 0.08 | 0.08 | 89 | 1015.0 |
| 20260901032701 | 75 | 245 | 0.0 | 3.0 | 0.00 | 0.08 | 0.08 | 88 | 1015.3 |
| 20260901032155 | 75 | 215 | 1.0 | 5.0 | 0.00 | 0.08 | 0.08 | 88 | 1015.2 |
| 20260901031651 | 75 | 221 | 0.0 | 5.0 | 0.00 | 0.08 | 0.08 | 88 | 1015.3 |
| 20260901031147 | 74 | 188 | 1.0 | 4.0 | 0.00 | 0.08 | 0.08 | 88 | 1015.3 |
| 20260901030646 | 74 | 160 | 1.0 | 5.0 | 0.00 | 0.08 | 0.08 | 88 | 1015.2 |
| 20260901030136 | 74 | 161 | 2.0 | 4.0 | 0.00 | 0.08 | 0.08 | 88 | 1015.1 |
| 20260901025635 | 74 | 159 | 1.0 | 3.0 | 0.00 | 0.08 | 0.08 | 88 | 1015.3 |
| 20260901025125 | 74 | 185 | 2.0 | 4.0 | 0.00 | 0.08 | 0.08 | 88 | 1015.1 |
| 20260901024625 | 74 | 173 | 3.0 | 5.0 | 0.00 | 0.08 | 0.08 | 87 | 1015.3 |
| 20260901024124 | 74 | 145 | 0.0 | 5.0 | 0.00 | 0.08 | 0.08 | 87 | 1015.1 |
| 20260901023623 | 74 | 168 | 3.0 | 5.0 | 0.00 | 0.08 | 0.08 | 87 | 1015.3 |
| 20260901023118 | 74 | 200 | 3.0 | 6.0 | 0.00 | 0.08 | 0.08 | 87 | 1015.1 |
| 20260901022613 | 74 | 166 | 0.0 | 2.0 | 0.00 | 0.08 | 0.08 | 87 | 1015.2 |
| 20260901022108 | 74 | 203 | 2.0 | 4.0 | 0.00 | 0.08 | 0.08 | 87 | 1015.2 |
| 20260901021604 | 74 | 205 | 0.0 | 5.0 | 0.00 | 0.08 | 0.08 | 86 | 1015.3 |
| 20260901021059 | 74 | 241 | 2.0 | 4.0 | 0.00 | 0.08 | 0.08 | 86 | 1014.9 |
| 20260901020554 | 74 | 122 | 2.0 | 5.0 | 0.00 | 0.08 | 0.08 | 86 | 1015.4 |
| 20260901020049 | 74 | 190 | 2.0 | 4.0 | 0.00 | 0.08 | 0.08 | 86 | 1015.1 |
| 20260901015544 | 74 | 210 | 0.0 | 3.0 | 0.00 | 0.08 | 0.08 | 85 | 1015.4 |
| 20260901015039 | 74 | 60 | 0.0 | 4.0 | 0.00 | 0.08 | 0.08 | 85 | 1015.6 |
| 20260901014534 | 74 | 166 | 2.0 | 4.0 | 0.00 | 0.08 | 0.08 | 85 | 1015.5 |
| 20260901014030 | 74 | 176 | 2.0 | 3.0 | 0.00 | 0.08 | 0.08 | 84 | 1015.4 |
| 20260901013526 | 74 | 149 | 0.0 | 4.0 | 0.00 | 0.08 | 0.08 | 84 | 1015.6 |
| 20260901013021 | 74 | 176 | 0.0 | 7.0 | 0.00 | 0.08 | 0.08 | 83 | 1015.1 |
| 20260901012521 | 74 | 177 | 1.0 | 4.0 | 0.00 | 0.08 | 0.08 | 83 | 1015.1 |
| 20260901012016 | 74 | 207 | 1.0 | 5.0 | 0.00 | 0.08 | 0.08 | 83 | 1015.2 |
| 20260901011513 | 74 | 229 | 0.0 | 4.0 | 0.00 | 0.08 | 0.08 | 83 | 1015.0 |
| 20260901011010 | 74 | 177 | 2.0 | 4.0 | 0.00 | 0.08 | 0.08 | 83 | 1015.1 |
| 20260901010506 | 74 | 167 | 2.0 | 8.0 | 0.00 | 0.08 | 0.08 | 83 | 1015.0 |
| 20260901010005 | 74 | 111 | 0.0 | 3.0 | 0.00 | 0.08 | 0.08 | 82 | 1015.0 |
| 20260901005500 | 74 | 265 | 0.0 | 4.0 | 0.00 | 0.08 | 0.08 | 82 | 1015.0 |
| 20260901004955 | 73 | 186 | 1.0 | 4.0 | 0.00 | 0.08 | 0.08 | 82 | 1014.7 |
| 20260901004454 | 73 | 180 | 4.0 | 5.0 | 0.00 | 0.08 | 0.08 | 82 | 1014.7 |
| 20260901003949 | 73 | 200 | 5.0 | 9.0 | 0.00 | 0.08 | 0.08 | 82 | 1014.7 |
| 20260901003444 | 73 | 168 | 0.0 | 3.0 | 0.00 | 0.08 | 0.08 | 82 | 1014.8 |
| 20260901002943 | 73 | 290 | 0.0 | 5.0 | 0.00 | 0.08 | 0.08 | 82 | 1014.7 |
| 20260901002442 | 73 | 166 | 0.0 | 4.0 | 0.00 | 0.08 | 0.08 | 82 | 1014.6 |
| 20260901001937 | 74 | 200 | 0.0 | 5.0 | 0.00 | 0.08 | 0.08 | 81 | 1014.6 |
| 20260901001432 | 74 | 211 | 0.0 | 5.0 | 0.00 | 0.08 | 0.08 | 81 | 1014.5 |
| 20260901000927 | 74 | 348 | 0.0 | 6.0 | 0.00 | 0.08 | 0.08 | 81 | 1014.5 |
| 20260901000422 | 74 | 136 | 0.0 | 4.0 | 0.00 | 0.08 | 0.08 | 82 | 1014.3 |
| 20260831235921 | 74 | 162 | 2.0 | 6.0 | 0.00 | 0.08 | 0.08 | 82 | 1014.4 |
| 20260831235418 | 74 | 154 | 0.0 | 4.0 | 0.00 | 0.08 | 0.08 | 83 | 1014.5 |
| 20260831234917 | 73 | 176 | 0.0 | 3.0 | 0.00 | 0.08 | 0.08 | 83 | 1014.3 |
| 20260831234412 | 73 | 187 | 2.0 | 5.0 | 0.00 | 0.08 | 0.08 | 84 | 1014.5 |
| 20260831233907 | 73 | 190 | 0.0 | 3.0 | 0.00 | 0.08 | 0.08 | 85 | 1014.4 |
| 20260831233402 | 73 | 169 | 1.0 | 4.0 | 0.00 | 0.08 | 0.08 | 85 | 1014.3 |
| 20260831232858 | 73 | 168 | 2.0 | 3.0 | 0.00 | 0.08 | 0.08 | 86 | 1014.4 |
| 20260831232353 | 73 | 169 | 1.0 | 3.0 | 0.00 | 0.08 | 0.08 | 86 | 1014.5 |
| 20260831231849 | 74 | 173 | 2.0 | 3.0 | 0.00 | 0.08 | 0.08 | 86 | 1014.4 |
| 20260831231346 | 74 | 211 | 0.0 | 3.0 | 0.00 | 0.08 | 0.08 | 85 | 1014.7 |
| 20260831230841 | 74 | 154 | 0.0 | 2.0 | 0.00 | 0.08 | 0.08 | 85 | 1014.4 |
| 20260831230335 | 74 | 183 | 2.0 | 4.0 | 0.00 | 0.08 | 0.08 | 85 | 1014.8 |
| 20260831225830 | 74 | 173 | 2.0 | 3.0 | 0.00 | 0.08 | 0.08 | 85 | 1014.7 |
| 20260831225325 | 74 | 302 | 1.0 | 2.0 | 0.00 | 0.08 | 0.08 | 85 | 1014.9 |
| 20260831224820 | 74 | 220 | 0.0 | 5.0 | 0.00 | 0.08 | 0.08 | 85 | 1014.8 |
| 20260831224315 | 74 | 215 | 0.0 | 4.0 | 0.00 | 0.08 | 0.08 | 84 | 1014.9 |
| 20260831223810 | 75 | 190 | 0.0 | 3.0 | 0.00 | 0.08 | 0.08 | 84 | 1014.9 |
| 20260831223306 | 76 | 167 | 1.0 | 3.0 | 0.00 | 0.08 | 0.08 | 83 | 1014.8 |
| 20260831222803 | 76 | 178 | 2.0 | 7.0 | 0.00 | 0.08 | 0.08 | 83 | 1014.9 |
| 20260831222258 | 76 | 185 | 2.0 | 8.0 | 0.00 | 0.08 | 0.08 | 83 | 1014.8 |
| 20260831221753 | 76 | 206 | 2.0 | 6.0 | 0.00 | 0.08 | 0.08 | 84 | 1015.1 |
| 20260831221249 | 75 | 225 | 2.0 | 5.0 | 0.00 | 0.08 | 0.08 | 87 | 1015.3 |
| 20260831220743 | 74 | 194 | 2.0 | 5.0 | 0.00 | 0.08 | 0.08 | 90 | 1015.3 |
| 20260831220239 | 73 | 197 | 2.0 | 4.0 | 0.00 | 0.08 | 0.08 | 91 | 1015.3 |
| 20260831215739 | 72 | 158 | 3.0 | 4.0 | 0.02 | 0.08 | 0.08 | 92 | 1015.7 |
| 20260831215235 | 72 | 155 | 2.0 | 3.0 | 0.00 | 0.08 | 0.08 | 93 | 1016.0 |
| 20260831214731 | 71 | 214 | 0.0 | 4.0 | 0.00 | 0.08 | 0.08 | 94 | 1016.0 |
| 20260831214228 | 72 | 86 | 0.0 | 2.0 | 0.00 | 0.08 | 0.08 | 94 | 1016.0 |
| 20260831213724 | 72 | 70 | 1.0 | 2.0 | 0.00 | 0.08 | 0.08 | 93 | 1015.8 |
| 20260831213220 | 72 | 114 | 0.0 | 3.0 | 0.00 | 0.08 | 0.08 | 93 | 1015.7 |
| 20260831212715 | 72 | 160 | 2.0 | 4.0 | 0.02 | 0.08 | 0.08 | 93 | 1015.4 |
| 20260831212212 | 72 | 138 | 1.0 | 3.0 | 0.00 | 0.07 | 0.07 | 94 | 1015.7 |
| 20260831211710 | 72 | 117 | 0.0 | 1.0 | 0.02 | 0.07 | 0.07 | 94 | 1016.1 |
| 20260831211205 | 73 | 116 | 0.0 | 1.0 | 0.02 | 0.07 | 0.07 | 93 | 1016.2 |
| 20260831210705 | 73 | 121 | 1.0 | 1.0 | 0.02 | 0.07 | 0.07 | 92 | 1016.3 |
| 20260831210201 | 74 | 89 | 0.0 | 2.0 | 0.05 | 0.07 | 0.07 | 91 | 1016.4 |
| 20260831205700 | 75 | 128 | 0.0 | 2.0 | 0.02 | 0.07 | 0.07 | 89 | 1016.1 |
| 20260831205157 | 76 | 187 | 3.0 | 4.0 | 0.02 | 0.06 | 0.06 | 88 | 1016.4 |
| 20260831204651 | 76 | 139 | 2.0 | 3.0 | 0.05 | 0.06 | 0.06 | 88 | 1016.8 |
| 20260831204149 | 76 | 216 | 0.0 | 10.0 | 0.02 | 0.06 | 0.06 | 89 | 1016.3 |
| 20260831203644 | 76 | 89 | 0.0 | 0.0 | 0.00 | 0.06 | 0.06 | 89 | 1016.4 |
| 20260831203144 | 76 | 62 | 0.0 | 1.0 | 0.00 | 0.06 | 0.06 | 89 | 1016.3 |
| 20260831202643 | 77 | 89 | 0.0 | 2.0 | 0.00 | 0.06 | 0.06 | 88 | 1016.2 |
| 20260831202138 | 77 | 23 | 0.0 | 2.0 | 0.00 | 0.06 | 0.06 | 87 | 1016.0 |
| 20260831201637 | 78 | 119 | 0.0 | 3.0 | 0.00 | 0.06 | 0.06 | 86 | 1016.3 |
| 20260831201131 | 78 | 110 | 0.0 | 1.0 | 0.00 | 0.06 | 0.06 | 86 | 1016.6 |
| 20260831200622 | 78 | 129 | 0.0 | 2.0 | 0.00 | 0.06 | 0.06 | 85 | 1016.5 |
| 20260831200121 | 78 | 62 | 0.0 | 1.0 | 0.00 | 0.06 | 0.06 | 85 | 1016.6 |
| 20260831195617 | 78 | 13 | 0.0 | 3.0 | 0.00 | 0.06 | 0.06 | 84 | 1016.4 |
| 20260831195112 | 79 | 32 | 2.0 | 3.0 | 0.00 | 0.06 | 0.06 | 85 | 1016.3 |
| 20260831194607 | 78 | 311 | 0.0 | 2.0 | 0.00 | 0.06 | 0.06 | 85 | 1016.4 |
| 20260831194102 | 78 | 141 | 0.0 | 1.0 | 0.00 | 0.06 | 0.06 | 86 | 1016.7 |
| 20260831193557 | 77 | 75 | 0.0 | 2.0 | 0.00 | 0.06 | 0.06 | 87 | 1016.7 |
| 20260831193052 | 78 | 62 | 0.0 | 2.0 | 0.00 | 0.06 | 0.06 | 87 | 1016.8 |
| 20260831192547 | 77 | 50 | 0.0 | 1.0 | 0.00 | 0.06 | 0.06 | 88 | 1016.9 |
| 20260831192042 | 77 | 62 | 0.0 | 1.0 | 0.00 | 0.06 | 0.06 | 88 | 1016.8 |
| 20260831191538 | 77 | 113 | 0.0 | 2.0 | 0.00 | 0.06 | 0.06 | 87 | 1017.0 |
| 20260831191033 | 77 | 60 | 0.0 | 0.0 | 0.00 | 0.06 | 0.06 | 86 | 1017.3 |
| 20260831190529 | 78 | 37 | 0.0 | 0.0 | 0.00 | 0.06 | 0.06 | 87 | 1017.1 |
| 20260831190027 | 77 | 63 | 0.0 | 1.0 | 0.00 | 0.06 | 0.06 | 86 | 1017.1 |
| 20260831185524 | 78 | 35 | 0.0 | 1.0 | 0.00 | 0.06 | 0.06 | 86 | 1017.1 |
| 20260831185019 | 78 | 84 | 1.0 | 2.0 | 0.00 | 0.06 | 0.06 | 85 | 1016.8 |
| 20260831184519 | 78 | 72 | 2.0 | 2.0 | 0.00 | 0.06 | 0.06 | 86 | 1017.0 |
| 20260831184014 | 78 | 43 | 0.0 | 2.0 | 0.00 | 0.06 | 0.06 | 84 | 1016.8 |
| 20260831183513 | 79 | 66 | 0.0 | 2.0 | 0.00 | 0.06 | 0.06 | 83 | 1016.7 |
| 20260831183013 | 80 | 157 | 3.0 | 3.0 | 0.00 | 0.06 | 0.06 | 79 | 1016.8 |
| 20260831182508 | 81 | 210 | 3.0 | 5.0 | 0.00 | 0.06 | 0.06 | 77 | 1016.8 |
| 20260831182003 | 81 | 162 | 1.0 | 4.0 | 0.00 | 0.06 | 0.06 | 78 | 1016.7 |
| 20260831181458 | 80 | 192 | 0.0 | 5.0 | 0.00 | 0.06 | 0.06 | 79 | 1016.5 |
| 20260831180953 | 80 | 304 | 0.0 | 4.0 | 0.00 | 0.06 | 0.06 | 82 | 1016.8 |
| 20260831180447 | 79 | 172 | 0.0 | 2.0 | 0.00 | 0.06 | 0.06 | 84 | 1016.7 |
| 20260831175947 | 78 | 165 | 0.0 | 3.0 | 0.00 | 0.06 | 0.06 | 84 | 1017.0 |
| 20260831175443 | 78 | 156 | 0.0 | 4.0 | 0.00 | 0.06 | 0.06 | 84 | 1017.0 |
| 20260831174939 | 78 | 206 | 1.0 | 3.0 | 0.00 | 0.06 | 0.06 | 84 | 1016.8 |
| 20260831174434 | 78 | 211 | 0.0 | 4.0 | 0.00 | 0.06 | 0.06 | 84 | 1016.8 |
| 20260831173933 | 78 | 239 | 1.0 | 2.0 | 0.00 | 0.06 | 0.06 | 83 | 1016.7 |
| 20260831173432 | 79 | 184 | 1.0 | 4.0 | 0.00 | 0.06 | 0.06 | 82 | 1016.9 |
| 20260831172928 | 79 | 162 | 0.0 | 3.0 | 0.00 | 0.06 | 0.06 | 83 | 1017.0 |
| 20260831172423 | 77 | 173 | 0.0 | 2.0 | 0.00 | 0.06 | 0.06 | 86 | 1016.9 |
| 20260831171918 | 77 | 144 | 0.0 | 2.0 | 0.00 | 0.06 | 0.06 | 85 | 1017.3 |
| 20260831171414 | 78 | 153 | 0.0 | 2.0 | 0.00 | 0.06 | 0.06 | 85 | 1017.3 |
| 20260831170911 | 79 | 99 | 1.0 | 3.0 | 0.00 | 0.06 | 0.06 | 83 | 1017.6 |
| 20260831170407 | 78 | 164 | 0.0 | 4.0 | 0.00 | 0.06 | 0.06 | 85 | 1017.5 |
| 20260831165903 | 77 | 129 | 0.0 | 2.0 | 0.00 | 0.06 | 0.06 | 87 | 1017.7 |
| 20260831165359 | 77 | 52 | 2.0 | 3.0 | 0.00 | 0.06 | 0.06 | 89 | 1017.6 |
| 20260831164855 | 76 | 196 | 0.0 | 3.0 | 0.00 | 0.06 | 0.06 | 94 | 1017.8 |
| 20260831164351 | 75 | 143 | 0.0 | 3.0 | 0.00 | 0.06 | 0.06 | 97 | 1017.8 |
| 20260831163846 | 73 | 97 | 0.0 | 1.0 | 0.02 | 0.06 | 0.06 | 97 | 1017.9 |
| 20260831163342 | 73 | 116 | 0.0 | 1.0 | 0.02 | 0.06 | 0.06 | 96 | 1018.0 |
| 20260831162840 | 73 | 89 | 0.0 | 2.0 | 0.00 | 0.05 | 0.05 | 96 | 1018.2 |
| 20260831162336 | 72 | 113 | 0.0 | 0.0 | 0.00 | 0.05 | 0.05 | 96 | 1018.2 |
| 20260831161834 | 71 | 103 | 0.0 | 1.0 | 0.02 | 0.05 | 0.05 | 96 | 1018.2 |